Regional Weather Roundup
Issued by NWS State College, PA

Home | Current Version | Previous Version | Graphics & Text | Print | Product List | Glossary Off
Versions: 1 2 3 4 5 6 7 8 9 10 11 12 13 14 15 16 17 18 19 20 21 22 23 24 25 26 27 28 29 30 31 32 33 34 35 36 37 38 39 40 41 42 43 44 45 46 47 48 49 50

000
ASUS41 KCTP 220510
RWRCTP

REGIONAL WEATHER ROUNDUP
NATIONAL WEATHER SERVICE STATE COLLEGE PA
1200 AM EST MON DEC 22 2014

Note: "fair" indicates few or no clouds below 12,000 feet with no
significant weather and/or obstructions to visibility.

* = STATION THAT DOES NOT REPORT PRECIPITATION /E.G. RAIN...SNOW...ETC/
    THUNDER OR FOG.

PAZ002>004-007>009-013>016-020>023-029>032-220600-
WESTERN PENNSYLVANIA

CITY           SKY/WX    TMP DP  RH WIND       PRES   REMARKS
ERIE           MOCLDY    31  21  66 SE3       30.24F
MEADVILLE      CLEAR     27  21  78 E5        30.19F
FRANKLIN*      CLEAR     25  18  74 E6        30.20F
NEW CASTLE       N/A     24  21  88 CALM      30.21F
BEAVER COUNTY  NOT AVBL
BUTLER*        CLEAR     25  19  80 NE7       30.19F
PITTSBURGH INT PTCLDY    26  21  81 E5        30.17F
PITTSBURGH     CLEAR     26  19  74 NE5       30.17F
INDIANA*       CLEAR     28  21  74 E5        30.23F
LATROBE        CLEAR     32  23  69 NE5       30.20F
WASHINGTON CO* NOT AVBL
$$

PAZ004>006-010>012-017>019-024>028-033>037-041-042-045-046-049>053-220600-
CENTRAL PENNSYLVANIA

CITY           SKY/WX    TMP DP  RH WIND       PRES   REMARKS
BRADFORD       CLOUDY    23  19  85 SE10      30.19S WCI  12
DUBOIS         CLEAR     20  17  88 E7        30.19F WCI  11
CLEARFIELD     CLEAR     19  17  92 N6        30.24F WCI  11
JOHNSTOWN      CLEAR     23  17  78 S8        30.16F WCI  14
ALTOONA        CLEAR     23  19  85 CALM      30.24F
STATE COLLEGE  PTCLDY    24  21  85 CALM      30.27F
WILLIAMSPORT   CLEAR     23  18  81 CALM      30.33S
SELINSGROVE    CLEAR     21  17  84 CALM      30.34S FOG
FT INDIANTOWN  CLEAR     20  18  93 N2        30.32F
CAPITAL CITY   CLEAR     23  19  85 CALM      30.33F
HARRISBURG     PTCLDY    24  20  84 CALM      30.32F
YORK           CLEAR     19  16  88 CALM      30.31F
$$

PAZ038>040-043-044-047-048-054-055-060>062-067>071-220600-
EASTERN PENNSYLVANIA

CITY           SKY/WX    TMP DP  RH WIND       PRES   REMARKS
SCRANTON       CLOUDY    30  21  69 CALM      30.29F
MOUNT POCONO   CLOUDY    27  21  78 E5        30.24S
ALLENTOWN      CLOUDY    29  22  75 CALM      30.33S
QUAKERTOWN*    CLOUDY    27  23  86 CALM      30.33S
READING        CLEAR     23  19  85 CALM      30.33F
LANCASTER      CLEAR     24  20  84 NE3       30.32F
COATESVILLE    CLEAR     28  23  80 CALM      30.31F
POTTSTOWN      PTCLDY    22  19  89 CALM      30.34F
BLUE BELL      CLOUDY    30  27  86 CALM      30.32F
DOYLESTOWN     CLOUDY    30  25  81 CALM      30.32S
WILLOW GROVE   NOT AVBL
NORTH PHILA    CLOUDY    33  23  66 N3        30.35S
PHILADELPHIA   PTCLDY    30  22  72 NW6       30.35S
$$


USA.gov is the U.S. government's official web portal to all federal, state and local government web resources and services.